Location: Indian Springs
(36.5700°N, 115.6700°W)
Time: 16:04:49
(UTC-07:00)

Daily predictions for brighter satellites

Satellite Brightness Start Highest point End
(mag) Time Altitude Azimuth Time Altitude Azimuth Time Altitude Azimuth
Cosmos 1452 Rocket 4.4 20:14:01 10° SSE 20:18:22 27° E 20:22:45 10° NE
COSMOS 2406 3.4 20:18:29 10° NNW 20:24:10 62° ENE 20:29:48 10° SSE
Cosmos 1825 4.0 20:23:30 10° ESE 20:25:38 15° E 20:27:47 10° NE
ALOS 2.4 20:23:10 10° S 20:27:50 79° WSW 20:32:32 10° NNW
Cosmos 2278 Rocket 3.0 20:25:11 10° SSE 20:30:00 29° ESE 20:34:48 10° NE
Centaur AC-119 3.6 20:29:51 10° SW 20:30:44 11° SSW 20:31:29 10° S
Cosmos 2184 Rocket 4.0 20:26:25 10° S 20:32:32 75° E 20:38:43 10° N
Cosmos 1844 Rocket 2.7 20:27:06 10° S 20:32:42 69° ESE 20:38:19 10° NNE
Cosmos 1844 3.9 20:29:14 10° S 20:34:46 52° ESE 20:40:22 10° NNE
H-2A R/B 3.2 20:32:37 10° SE 20:36:13 26° ENE 20:39:45 10° NNE
FENGYUN 3A 4.1 20:35:57 10° S 20:41:18 65° W 20:46:40 10° NNW
CZ-3C R/B 4.0 20:01:10 10° WSW 20:43:32 32° S 20:50:58 13° SE
Meteor 2-10 Rocket 3.9 20:39:20 10° N 20:45:08 82° W 20:50:45 10° S
ISS -3.5 20:42:38 10° SW 20:45:51 71° SE 20:49:05 10° NE
USA 186 2.9 20:44:00 10° S 20:46:56 43° W 20:50:04 10° NNW
CENTAUR R/B 3.5 20:43:09 10° NW 20:51:04 67° WSW 20:59:17 10° SSE
Cosmos 2082 Rocket 4.2 20:48:45 10° NNE 20:51:23 13° NE 20:54:01 10° E
Meteor 1-10 Rocket 4.3 20:48:17 10° N 20:54:07 87° E 20:59:48 10° S
Cosmos 1862 3.8 20:50:21 10° SSE 20:54:10 41° E 20:58:01 10° NNE
Cosmos 676 Rocket 4.4 20:50:22 10° N 20:55:23 47° ENE 20:59:12 17° SE
Cosmos 1238 Rocket 3.8 20:53:21 10° NNE 20:56:13 25° E 20:57:47 19° ESE
Cosmos 1174 4.1 20:54:29 10° N 20:57:22 32° ENE 20:58:43 21° ESE
SPOT 5 3.8 20:55:02 16° SE 20:58:49 38° ENE 21:03:45 10° N
COS B Rocket 3.7 20:56:54 10° NNE 21:00:40 39° E 21:02:44 20° SE
EO 1 Delta rocket 4.2 20:56:58 10° NNE 21:02:48 58° E 21:07:37 10° S
Okean 2 Rocket 3.9 21:02:42 19° SE 21:05:04 31° E 21:08:59 10° NNE
OAO 3 Rocket 4.0 21:01:10 10° SW 21:05:35 33° SSE 21:08:12 20° ESE
Cosmos 1674 Rocket 3.7 21:01:13 10° N 21:05:41 80° W 21:10:04 10° S
SL-27 R/B 3.0 21:03:08 10° NNW 21:06:44 57° WSW 21:09:43 13° S
Okean 3 4.2 21:03:07 10° NNE 21:07:04 35° ENE 21:08:59 23° SE
Cosmos 1606 2.7 21:06:30 10° N 21:10:25 67° E 21:12:54 21° SSE
PSLV R/B 4.1 21:08:48 10° W 21:12:03 39° SSW 21:13:25 26° SSE
Sich 1 Rocket 4.0 21:10:39 10° SSW 21:15:12 68° W 21:19:47 10° N
Cosmos 1782 Rocket 3.7 21:15:08 17° SSE 21:18:23 57° E 21:22:46 10° NNE
Meteor 1-27 Rocket 3.6 21:16:11 10° N 21:21:46 88° E 21:26:04 17° S
Cosmos 1782 3.8 21:18:28 10° NNW 21:22:20 46° W 21:26:12 10° SSW
GPS 2-05 Rocket1 2.8 21:18:41 10° WSW 21:22:23 70° S 21:23:47 34° E
Nadezhda 3 Rocket 4.0 21:16:27 10° N 21:22:50 80° E 21:27:59 17° S
COSMOS 2487 2.8 21:21:54 10° N 21:25:26 51° ENE 21:26:19 40° ESE
Meteor 2-13 Rocket 4.5 21:23:53 16° SSE 21:28:48 60° E 21:34:52 10° NNE
Envisat 3.1 21:26:19 17° S 21:30:12 74° WSW 21:35:18 10° NNW
MetOp-B 4.2 21:27:42 27° SE 21:30:36 63° ENE 21:35:53 10° N
Cosmos 1939 Rocket 3.6 21:29:40 17° S 21:32:23 49° W 21:36:12 10° NNW
APEX 3.3 21:32:03 31° S 21:33:42 60° ESE 21:38:22 10° NNE
SEDSat Delta rocket 4.1 21:31:40 10° SW 21:34:25 25° S 21:34:25 25° S
Cosmos 1975 Rocket 3.0 21:31:49 10° N 21:36:08 66° E 21:37:35 39° SSE
DNEPR-1 R/B 4.3 21:36:25 10° NNW 21:41:31 47° NE 21:42:52 36° E
Cosmos 1420 Rocket 3.9 21:36:26 10° SSW 21:41:41 87° ESE 21:46:56 10° NNE
Atlas Centaur 2 2.7 21:41:24 10° WSW 21:43:28 20° SSW 21:43:28 20° SSW
Cosmos 2341 Rocket 4.2 21:38:43 10° SSW 21:45:01 73° W 21:51:18 10° N
OAO 1 Rocket 4.4 21:41:05 10° WSW 21:46:18 59° SSE 21:48:06 38° ESE
Cosmos 614 Rocket 4.4 21:42:26 10° N 21:47:19 45° ENE 21:48:29 38° ESE
ERS-1 Rocket 4.5 21:43:03 10° SSW 21:47:31 32° W 21:52:01 10° NW
Cosmos 1378 Rocket 4.1 21:43:44 10° NNW 21:47:57 53° W 21:50:13 25° SSW
ARGOS 3.3 21:46:44 38° SE 21:48:30 55° ENE 21:53:43 10° N
ATLAS 5 CENTAUR R/B 4.2 21:48:32 10° WNW 21:53:24 24° WSW 21:58:19 10° SSW
YAOGAN 6 2.4 21:53:07 71° SSW 21:53:24 79° WSW 21:56:56 10° NNW
CZ-4 R/B 3.8 21:48:57 10° NNE 21:53:31 52° E 21:53:59 50° ESE
H-2A R/B 3.0 21:53:53 30° E 21:54:50 32° ENE 21:59:32 10° N
Cosmos 1408 4.3 21:52:45 12° SW 21:55:45 32° W 21:59:04 10° NNW
CZ-4 SHROUD 3.6 21:55:59 57° W 21:55:59 57° W 21:58:56 10° NNW
Cosmos 1140 Rocket 3.4 21:52:26 10° NNW 21:57:36 89° WSW 21:59:09 47° SSE
SL-8 Rocket 3.9 21:54:45 25° S 21:58:34 84° E 22:04:51 10° N
Cosmos 1242 Rocket 2.5 21:55:08 10° N 21:58:49 82° W 21:58:56 80° SW
USA 245 3.0 21:59:05 74° NNE 21:59:05 74° NNE 22:02:41 10° N
PSLV R/B 4.2 22:00:22 41° W 22:00:22 41° W 22:02:57 10° NNW
Cosmos 1825 4.1 21:57:39 10° SW 22:00:59 28° WNW 22:04:20 10° NNW
Timation 2 Rocket 3.8 21:56:26 10° NNW 22:02:26 81° ENE 22:04:20 46° SSE
Meteor 1-25 Rocket 4.4 22:05:46 47° SE 22:06:42 52° E 22:12:21 10° NNE
CZ-4B R/B 3.4 22:04:09 10° N 22:09:05 76° WNW 22:11:04 36° SSW
SPOT 1/Viking Rocket 3.5 22:08:42 48° S 22:10:10 80° WSW 22:15:25 10° NNW
Cosmos 2151 Rocket 3.4 22:10:45 75° SE 22:11:00 79° E 22:15:32 10° N
H-2A R/B 4.1 22:09:43 15° SW 22:12:09 23° W 22:15:32 10° NW
Cosmos 2278 Rocket 3.8 22:08:46 10° SW 22:13:54 35° WNW 22:19:04 10° N
USA 234 3.2 22:07:44 10° NE 22:14:06 54° SE 22:17:45 26° SSW
Cosmos 1833 Rocket 3.0 22:09:12 10° N 22:14:36 47° ENE 22:15:24 44° E
Landsat 7 3.9 22:15:00 57° E 22:15:08 58° ENE 22:19:49 10° N
ISS -0.1 22:20:34 10° WNW 22:22:36 15° NNW 22:24:39 10° NNE
Meteor 1-18 Rocket 4.2 22:19:27 10° N 22:25:22 71° E 22:26:13 62° SE
Cosmos 1812 4.2 22:24:21 10° N 22:26:39 30° NNE 22:26:39 30° NNE
Cosmos 864 Rocket 4.4 22:27:09 46° SSW 22:29:09 83° W 22:35:20 10° N
Terra 2.1 22:31:14 56° NE 22:31:14 56° NE 22:35:32 10° N
SL-08 RB Rocket 4.0 22:33:35 59° WSW 22:33:44 59° W 22:38:18 10° NNW
Okean 1 Rocket 4.3 22:35:21 32° NE 22:35:21 32° NE 22:38:02 10° NNE
Cosmos 1850 Rocket 4.5 22:30:07 10° NNW 22:35:17 53° WSW 22:36:03 49° SW
Cosmos 2082 Rocket 2.0 22:30:32 10° NNW 22:36:15 88° WSW 22:36:43 76° S
Cosmos 2366 rocket 4.3 22:36:36 37° SSW 22:39:07 65° W 22:45:26 10° N
Spot 4 4.3 22:42:42 52° NE 22:42:42 52° NE 22:46:49 10° N
Lacrosse 5 3.8 22:56:43 20° NE 22:56:43 20° NE 22:58:15 10° NE
Meteor 1-11 Rocket 4.3 22:54:41 47° ENE 22:54:41 47° ENE 22:59:21 10° NNE
DMSP B5D2-2 4.1 22:51:06 10° N 22:56:17 73° WNW 22:56:17 73° WNW
Cosmos 1331 Rocket 4.3 23:02:17 63° NW 23:02:17 63° NW 23:07:11 10° NNE
USA 229 DEB 3.6 22:56:27 10° NW 23:03:35 77° WSW 23:04:18 70° S
USA 229 3.6 22:56:33 10° NW 23:03:41 78° WSW 23:04:24 71° S
ASTEX 1 3.8 23:00:23 10° N 23:04:23 59° N 23:04:23 59° N
Cosmos 1000 Rocket 4.4 23:11:48 10° N 23:17:46 80° NNE 23:17:46 80° NNE
Cosmos 2239 Rocket 4.5 23:21:07 79° NNE 23:21:07 79° NNE 23:27:04 10° N
Cosmos 2369 Rocket 3.4 23:23:59 33° NE 23:23:59 33° NE 23:27:11 10° NNE
H-2A R/B 3.6 23:34:32 29° W 23:34:32 29° W 23:38:46 10° NW
ATLAS 2AS CENTAUR R/B 4.4 23:35:56 10° NNW 23:42:46 29° NE 23:46:08 22° E
